{"data":{"norad_id":53806,"intl_designator":"2022-111AK","name":"STARLINK-4768","alt_names":[],"object_type":"PAYLOAD","status":"ACTIVE","operator":null,"country":"US","launch_date":"2022-09-11","launch_site_code":"AFETR","launch_vehicle":null,"mission":null,"orbit_class":"UNKNOWN","rcs_meters":null,"size_class":null,"mass_kg":null,"dimensions":null,"purposes":["comms"],"wikipedia_slug":null,"has_3d_model":false,"image_url":null,"decayed_at":null,"tle_current":{"epoch":"2026-09-20T22:00:42.271488Z","epoch_age_seconds":48306,"freshness":"FRESH","line1":"1 53806U 22111AK  26263.91715592  .00001759  00000+0  61327-4 0  9991","line2":"2 53806  53.1596  84.0390 0001116  77.0381 283.0747 15.35396078223614","mean_motion":15.35396078,"eccentricity":0.0001116,"inclination_deg":53.1596,"raan_deg":84.039,"arg_perigee_deg":77.0381,"mean_anomaly_deg":283.0747,"bstar":6.1327e-5,"rev_number":22361,"period_min":93.786874972075,"perigee_km":458.9811795739,"apogee_km":460.50739467719,"semimajor_km":6837.8812871255,"source":"CELESTRAK","updated_at":"2026-09-21T09:00:32.997337Z"}}}